Year,Month,Day,Hour,Minute,Value (Times are PST for windspeed in km/hr)
2011,02,13,00,00,3.80
2011,02,13,00,01,7.70
2011,02,13,00,02,7.30
2011,02,13,00,03,5.10
2011,02,13,00,04,7.70
2011,02,13,00,05,5.00
2011,02,13,00,06,4.90
2011,02,13,00,07,2.70
2011,02,13,00,08,3.20
2011,02,13,00,09,3.90
2011,02,13,00,10,6.80
2011,02,13,00,11,2.90
2011,02,13,00,12,2.70
2011,02,13,00,13,0.00
2011,02,13,00,14,0.60
2011,02,13,00,15,2.90
2011,02,13,00,16,5.10
2011,02,13,00,17,1.40
2011,02,13,00,18,1.90
2011,02,13,00,19,1.90
2011,02,13,00,20,0.30
2011,02,13,00,21,1.60
2011,02,13,00,22,0.20
2011,02,13,00,23,1.40
2011,02,13,00,24,4.30
2011,02,13,00,25,3.10
2011,02,13,00,26,3.20
2011,02,13,00,27,3.10
2011,02,13,00,28,1.40
2011,02,13,00,29,3.10
2011,02,13,00,30,3.30
2011,02,13,00,31,4.20
2011,02,13,00,32,3.10
2011,02,13,00,33,1.70
2011,02,13,00,34,3.20
2011,02,13,00,35,4.70
2011,02,13,00,36,4.30
2011,02,13,00,37,2.00
2011,02,13,00,38,1.70
2011,02,13,00,39,0.10
2011,02,13,00,40,3.20
2011,02,13,00,41,2.50
2011,02,13,00,42,3.80
2011,02,13,00,43,2.80
2011,02,13,00,44,1.50
2011,02,13,00,45,2.90
2011,02,13,00,46,2.80
2011,02,13,00,47,1.50
2011,02,13,00,48,2.00
2011,02,13,00,49,2.70
2011,02,13,00,50,0.60
2011,02,13,00,51,0.20
2011,02,13,00,52,0.10
2011,02,13,00,53,2.10
2011,02,13,00,54,0.50
2011,02,13,00,55,0.00
2011,02,13,00,56,0.00
2011,02,13,00,57,0.20
2011,02,13,00,58,0.20
2011,02,13,00,59,0.00
2011,02,13,01,00,1.00
2011,02,13,01,01,0.40
2011,02,13,01,02,2.30
2011,02,13,01,03,0.60
2011,02,13,01,04,1.20
2011,02,13,01,05,0.70
2011,02,13,01,06,1.00
2011,02,13,01,07,0.00
2011,02,13,01,08,2.20
2011,02,13,01,09,2.60
2011,02,13,01,10,2.80
2011,02,13,01,11,2.80
2011,02,13,01,12,1.50
2011,02,13,01,13,0.10
2011,02,13,01,14,0.00
2011,02,13,01,15,0.00
2011,02,13,01,16,0.00
2011,02,13,01,17,0.00
2011,02,13,01,18,2.40
2011,02,13,01,19,2.30
2011,02,13,01,20,0.90
2011,02,13,01,21,1.40
2011,02,13,01,22,1.40
2011,02,13,01,23,2.90
2011,02,13,01,24,0.90
2011,02,13,01,25,0.00
2011,02,13,01,26,0.90
2011,02,13,01,27,0.00
2011,02,13,01,28,0.70
2011,02,13,01,29,0.20
2011,02,13,01,30,1.10
2011,02,13,01,31,1.00
2011,02,13,01,32,0.80
2011,02,13,01,33,1.40
2011,02,13,01,34,0.90
2011,02,13,01,35,1.70
2011,02,13,01,36,2.30
2011,02,13,01,37,1.90
2011,02,13,01,38,4.70
2011,02,13,01,39,3.10
2011,02,13,01,40,2.60
2011,02,13,01,41,2.80
2011,02,13,01,42,1.00
2011,02,13,01,43,0.90
2011,02,13,01,44,1.90
2011,02,13,01,45,1.50
2011,02,13,01,46,0.10
2011,02,13,01,47,0.00
2011,02,13,01,48,1.50
2011,02,13,01,49,1.20
2011,02,13,01,50,2.40
2011,02,13,01,51,1.30
2011,02,13,01,52,3.60
2011,02,13,01,53,1.70
2011,02,13,01,54,1.10
2011,02,13,01,55,2.20
2011,02,13,01,56,1.90
2011,02,13,01,57,1.20
2011,02,13,01,58,0.50
2011,02,13,01,59,2.30
2011,02,13,02,00,2.30
2011,02,13,02,01,3.30
2011,02,13,02,02,0.00
2011,02,13,02,03,0.10
2011,02,13,02,04,4.20
2011,02,13,02,05,4.10
2011,02,13,02,06,3.50
2011,02,13,02,07,2.80
2011,02,13,02,08,2.90
2011,02,13,02,09,3.90
2011,02,13,02,10,4.20
2011,02,13,02,11,1.60
2011,02,13,02,12,0.10
2011,02,13,02,13,0.60
2011,02,13,02,14,2.30
2011,02,13,02,15,1.20
2011,02,13,02,16,2.50
2011,02,13,02,17,1.80
2011,02,13,02,18,2.10
2011,02,13,02,19,3.80
2011,02,13,02,20,3.40
2011,02,13,02,21,2.50
2011,02,13,02,22,4.00
2011,02,13,02,23,4.40
2011,02,13,02,24,0.40
2011,02,13,02,25,0.60
2011,02,13,02,26,1.60
2011,02,13,02,27,3.60
2011,02,13,02,28,4.10
2011,02,13,02,29,3.60
2011,02,13,02,30,0.70
2011,02,13,02,31,1.40
2011,02,13,02,32,1.90
2011,02,13,02,33,1.90
2011,02,13,02,34,2.20
2011,02,13,02,35,2.30
2011,02,13,02,36,0.70
2011,02,13,02,37,2.30
2011,02,13,02,38,1.20
2011,02,13,02,39,1.50
2011,02,13,02,40,2.40
2011,02,13,02,41,3.90
2011,02,13,02,42,3.50
2011,02,13,02,43,0.60
2011,02,13,02,44,0.50
2011,02,13,02,45,0.00
2011,02,13,02,46,0.00
2011,02,13,02,47,2.10
2011,02,13,02,48,1.00
2011,02,13,02,49,1.30
2011,02,13,02,50,0.80
2011,02,13,02,51,0.50
2011,02,13,02,52,3.10
2011,02,13,02,53,0.20
2011,02,13,02,54,4.70
2011,02,13,02,55,4.80
2011,02,13,02,56,3.20
2011,02,13,02,57,4.60
2011,02,13,02,58,5.70
2011,02,13,02,59,3.70
2011,02,13,03,00,2.70
2011,02,13,03,01,0.00
2011,02,13,03,02,0.00
2011,02,13,03,03,0.00
2011,02,13,03,04,0.10
2011,02,13,03,05,1.80
2011,02,13,03,06,2.60
2011,02,13,03,07,1.40
2011,02,13,03,08,1.50
2011,02,13,03,09,1.70
2011,02,13,03,10,4.00
2011,02,13,03,11,3.00
2011,02,13,03,12,0.50
2011,02,13,03,13,0.70
2011,02,13,03,14,0.30
2011,02,13,03,15,4.10
2011,02,13,03,16,2.00
2011,02,13,03,17,0.50
2011,02,13,03,18,0.00
2011,02,13,03,19,2.40
2011,02,13,03,20,1.50
2011,02,13,03,21,2.30
2011,02,13,03,22,2.40
2011,02,13,03,23,1.50
2011,02,13,03,24,0.00
2011,02,13,03,25,0.20
2011,02,13,03,26,3.40
2011,02,13,03,27,4.50
2011,02,13,03,28,0.20
2011,02,13,03,29,0.00
2011,02,13,03,30,2.30
2011,02,13,03,31,3.10
2011,02,13,03,32,0.20
2011,02,13,03,33,0.80
2011,02,13,03,34,0.20
2011,02,13,03,35,5.20
2011,02,13,03,36,2.60
2011,02,13,03,37,5.00
2011,02,13,03,38,3.00
2011,02,13,03,39,0.00
2011,02,13,03,40,0.00
2011,02,13,03,41,0.00
2011,02,13,03,42,0.20
2011,02,13,03,43,2.30
2011,02,13,03,44,5.80
2011,02,13,03,45,8.00
2011,02,13,03,46,13.50
2011,02,13,03,47,5.40
2011,02,13,03,48,6.00
2011,02,13,03,49,4.80
2011,02,13,03,50,3.70
2011,02,13,03,51,6.50
2011,02,13,03,52,6.80
2011,02,13,03,53,0.10
2011,02,13,03,54,5.60
2011,02,13,03,55,7.60
2011,02,13,03,56,5.00
2011,02,13,03,57,2.70
2011,02,13,03,58,7.20
2011,02,13,03,59,7.20
2011,02,13,04,00,6.80
2011,02,13,04,01,2.40
2011,02,13,04,02,5.60
2011,02,13,04,03,0.20
2011,02,13,04,04,1.20
2011,02,13,04,05,0.00
2011,02,13,04,06,1.40
2011,02,13,04,07,0.60
2011,02,13,04,08,0.00
2011,02,13,04,09,0.00
2011,02,13,04,10,0.00
2011,02,13,04,11,0.50
2011,02,13,04,12,2.40
2011,02,13,04,13,3.30
2011,02,13,04,14,2.10
2011,02,13,04,15,1.00
2011,02,13,04,16,2.60
2011,02,13,04,17,0.70
2011,02,13,04,18,3.60
2011,02,13,04,19,1.10
2011,02,13,04,20,0.30
2011,02,13,04,21,0.60
2011,02,13,04,22,3.00
2011,02,13,04,23,3.10
2011,02,13,04,24,1.50
2011,02,13,04,25,3.00
2011,02,13,04,26,1.40
2011,02,13,04,27,0.70
2011,02,13,04,28,2.10
2011,02,13,04,29,2.60
2011,02,13,04,30,3.00
2011,02,13,04,31,4.90
2011,02,13,04,32,2.40
2011,02,13,04,33,3.80
2011,02,13,04,34,0.90
2011,02,13,04,35,3.00
2011,02,13,04,36,3.00
2011,02,13,04,37,1.10
2011,02,13,04,38,0.40
2011,02,13,04,39,2.70
2011,02,13,04,40,3.20
2011,02,13,04,41,4.00
2011,02,13,04,42,4.30
2011,02,13,04,43,3.80
2011,02,13,04,44,1.80
2011,02,13,04,45,0.50
2011,02,13,04,46,0.90
2011,02,13,04,47,2.40
2011,02,13,04,48,4.30
2011,02,13,04,49,3.00
2011,02,13,04,50,2.70
2011,02,13,04,51,2.60
2011,02,13,04,52,2.90
2011,02,13,04,53,3.20
2011,02,13,04,54,3.30
2011,02,13,04,55,2.40
2011,02,13,04,56,3.20
2011,02,13,04,57,1.40
2011,02,13,04,58,3.70
2011,02,13,04,59,1.40
2011,02,13,05,00,0.00
2011,02,13,05,01,0.00
2011,02,13,05,02,0.00
2011,02,13,05,03,0.00
2011,02,13,05,04,0.30
2011,02,13,05,05,2.80
2011,02,13,05,06,1.90
2011,02,13,05,07,0.00
2011,02,13,05,08,0.00
2011,02,13,05,09,0.20
2011,02,13,05,10,3.40
2011,02,13,05,11,1.50
2011,02,13,05,12,1.80
2011,02,13,05,13,0.70
2011,02,13,05,14,0.00
2011,02,13,05,15,0.00
2011,02,13,05,16,0.00
2011,02,13,05,17,2.00
2011,02,13,05,18,0.00
2011,02,13,05,19,0.60
2011,02,13,05,20,0.30
2011,02,13,05,21,0.00
2011,02,13,05,22,0.60
2011,02,13,05,23,0.60
2011,02,13,05,24,0.00
2011,02,13,05,25,1.30
2011,02,13,05,26,0.10
2011,02,13,05,27,1.30
2011,02,13,05,28,0.00
2011,02,13,05,29,0.00
2011,02,13,05,30,0.00
2011,02,13,05,31,0.20
2011,02,13,05,32,2.30
2011,02,13,05,33,3.40
2011,02,13,05,34,2.90
2011,02,13,05,35,3.10
2011,02,13,05,36,2.20
2011,02,13,05,37,3.40
2011,02,13,05,38,3.10
2011,02,13,05,39,2.50
2011,02,13,05,40,3.10
2011,02,13,05,41,2.80
2011,02,13,05,42,2.90
2011,02,13,05,43,2.90
2011,02,13,05,44,0.50
2011,02,13,05,45,1.10
2011,02,13,05,46,0.60
2011,02,13,05,47,0.00
2011,02,13,05,48,0.80
2011,02,13,05,49,3.30
2011,02,13,05,50,3.50
2011,02,13,05,51,1.00
2011,02,13,05,52,3.60
2011,02,13,05,53,3.50
2011,02,13,05,54,1.40
2011,02,13,05,55,1.00
2011,02,13,05,56,0.20
2011,02,13,05,57,0.80
2011,02,13,05,58,3.50
2011,02,13,05,59,6.80
2011,02,13,06,00,4.80
2011,02,13,06,01,3.40
2011,02,13,06,02,1.20
2011,02,13,06,03,2.30
2011,02,13,06,04,1.50
2011,02,13,06,05,1.30
2011,02,13,06,06,0.90
2011,02,13,06,07,0.60
2011,02,13,06,08,1.50
2011,02,13,06,09,2.30
2011,02,13,06,10,3.00
2011,02,13,06,11,0.20
2011,02,13,06,12,1.40
2011,02,13,06,13,2.50
2011,02,13,06,14,2.80
2011,02,13,06,15,2.30
2011,02,13,06,16,2.40
2011,02,13,06,17,0.10
2011,02,13,06,18,0.80
2011,02,13,06,19,2.20
2011,02,13,06,20,0.00
2011,02,13,06,21,0.10
2011,02,13,06,22,0.00
2011,02,13,06,23,3.20
2011,02,13,06,24,2.30
2011,02,13,06,25,3.20
2011,02,13,06,26,2.60
2011,02,13,06,27,0.30
2011,02,13,06,28,2.40
2011,02,13,06,29,0.90
2011,02,13,06,30,1.10
2011,02,13,06,31,2.70
2011,02,13,06,32,0.60
2011,02,13,06,33,0.10
2011,02,13,06,34,1.10
2011,02,13,06,35,1.30
2011,02,13,06,36,0.10
2011,02,13,06,37,0.00
2011,02,13,06,38,0.20
2011,02,13,06,39,1.60
2011,02,13,06,40,1.20
2011,02,13,06,41,3.60
2011,02,13,06,42,2.50
2011,02,13,06,43,2.20
2011,02,13,06,44,3.20
2011,02,13,06,45,3.10
2011,02,13,06,46,2.30
2011,02,13,06,47,2.20
2011,02,13,06,48,1.20
2011,02,13,06,49,2.40
2011,02,13,06,50,2.30
2011,02,13,06,51,2.80
2011,02,13,06,52,2.80
2011,02,13,06,53,1.80
2011,02,13,06,54,2.60
2011,02,13,06,55,2.40
2011,02,13,06,56,2.80
2011,02,13,06,57,2.50
2011,02,13,06,58,2.70
2011,02,13,06,59,4.00
2011,02,13,07,00,3.00
2011,02,13,07,01,2.80
2011,02,13,07,02,3.10
2011,02,13,07,03,1.70
2011,02,13,07,04,2.30
2011,02,13,07,05,2.50
2011,02,13,07,06,3.90
2011,02,13,07,07,4.40
2011,02,13,07,08,1.90
2011,02,13,07,09,3.50
2011,02,13,07,10,3.50
2011,02,13,07,11,2.30
2011,02,13,07,12,2.20
2011,02,13,07,13,2.80
2011,02,13,07,14,1.70
2011,02,13,07,15,0.00
2011,02,13,07,16,0.90
2011,02,13,07,17,1.00
2011,02,13,07,18,2.40
2011,02,13,07,19,0.80
2011,02,13,07,20,0.00
2011,02,13,07,21,0.00
2011,02,13,07,22,0.00
2011,02,13,07,23,0.00
2011,02,13,07,24,0.00
2011,02,13,07,25,0.00
2011,02,13,07,26,0.20
2011,02,13,07,27,0.00
2011,02,13,07,28,0.00
2011,02,13,07,29,1.50
2011,02,13,07,30,2.00
2011,02,13,07,31,0.90
2011,02,13,07,32,2.50
2011,02,13,07,33,0.50
2011,02,13,07,34,0.00
2011,02,13,07,35,0.10
2011,02,13,07,36,0.00
2011,02,13,07,37,0.10
2011,02,13,07,38,0.00
2011,02,13,07,39,0.00
2011,02,13,07,40,0.00
2011,02,13,07,41,0.00
2011,02,13,07,42,0.00
2011,02,13,07,43,0.00
2011,02,13,07,44,1.80
2011,02,13,07,45,1.90
2011,02,13,07,46,3.00
2011,02,13,07,47,3.20
2011,02,13,07,48,3.10
2011,02,13,07,49,3.40
2011,02,13,07,50,3.40
2011,02,13,07,51,3.30
2011,02,13,07,52,3.60
2011,02,13,07,53,3.80
2011,02,13,07,54,4.50
2011,02,13,07,55,4.50
2011,02,13,07,56,4.40
2011,02,13,07,57,3.30
2011,02,13,07,58,4.30
2011,02,13,07,59,4.30
2011,02,13,08,00,3.20
2011,02,13,08,01,2.80
2011,02,13,08,02,2.40
2011,02,13,08,03,2.50
2011,02,13,08,04,1.50
2011,02,13,08,05,2.10
2011,02,13,08,06,1.30
2011,02,13,08,07,3.80
2011,02,13,08,08,3.70
2011,02,13,08,09,3.20
2011,02,13,08,10,3.90
2011,02,13,08,11,2.30
2011,02,13,08,12,4.20
2011,02,13,08,13,3.80
2011,02,13,08,14,1.50
2011,02,13,08,15,3.40
2011,02,13,08,16,3.30
2011,02,13,08,17,4.10
2011,02,13,08,18,0.90
2011,02,13,08,19,0.90
2011,02,13,08,20,0.20
2011,02,13,08,21,2.70
2011,02,13,08,22,1.90
2011,02,13,08,23,2.30
2011,02,13,08,24,1.60
2011,02,13,08,25,0.90
2011,02,13,08,26,2.90
2011,02,13,08,27,2.70
2011,02,13,08,28,0.10
2011,02,13,08,29,1.20
2011,02,13,08,30,1.70
2011,02,13,08,31,2.40
2011,02,13,08,32,1.80
2011,02,13,08,33,0.60
2011,02,13,08,34,0.20
2011,02,13,08,35,1.60
2011,02,13,08,36,1.60
2011,02,13,08,37,0.10
2011,02,13,08,38,0.10
2011,02,13,08,39,1.20
2011,02,13,08,40,0.20
2011,02,13,08,41,0.20
2011,02,13,08,42,0.00
2011,02,13,08,43,0.30
2011,02,13,08,44,0.00
2011,02,13,08,45,0.90
2011,02,13,08,46,1.40
2011,02,13,08,47,0.10
2011,02,13,08,48,0.00
2011,02,13,08,49,0.00
2011,02,13,08,50,0.00
2011,02,13,08,51,0.00
2011,02,13,08,52,0.20
2011,02,13,08,53,0.10
2011,02,13,08,54,0.80
2011,02,13,08,55,0.00
2011,02,13,08,56,0.80
2011,02,13,08,57,0.20
2011,02,13,08,58,0.70
2011,02,13,08,59,0.00
2011,02,13,09,00,0.10
2011,02,13,09,01,3.30
2011,02,13,09,02,0.40
2011,02,13,09,03,0.00
2011,02,13,09,04,0.10
2011,02,13,09,05,0.00
2011,02,13,09,06,0.00
2011,02,13,09,07,0.20
2011,02,13,09,08,0.30
2011,02,13,09,09,1.30
2011,02,13,09,10,0.00
2011,02,13,09,11,0.00
2011,02,13,09,12,0.00
2011,02,13,09,13,0.00
2011,02,13,09,14,0.00
2011,02,13,09,15,0.00
2011,02,13,09,16,0.00
2011,02,13,09,17,0.00
2011,02,13,09,18,0.00
2011,02,13,09,19,0.00
2011,02,13,09,20,0.00
2011,02,13,09,21,0.00
2011,02,13,09,22,0.00
2011,02,13,09,23,0.00
2011,02,13,09,24,0.00
2011,02,13,09,25,0.00
2011,02,13,09,26,0.00
2011,02,13,09,27,0.00
2011,02,13,09,28,0.00
2011,02,13,09,29,0.00
2011,02,13,09,30,0.00
2011,02,13,09,31,0.00
2011,02,13,09,32,0.00
2011,02,13,09,33,0.00
2011,02,13,09,34,0.10
2011,02,13,09,35,0.00
2011,02,13,09,36,0.00
2011,02,13,09,37,0.00
2011,02,13,09,38,0.00
2011,02,13,09,39,0.00
2011,02,13,09,40,0.00
2011,02,13,09,41,0.20
2011,02,13,09,42,0.00
2011,02,13,09,43,0.90
2011,02,13,09,44,2.20
2011,02,13,09,45,0.10
2011,02,13,09,46,0.10
2011,02,13,09,47,0.00
2011,02,13,09,48,0.00
2011,02,13,09,49,0.00
2011,02,13,09,50,0.00
2011,02,13,09,51,0.10
2011,02,13,09,52,0.20
2011,02,13,09,53,0.10
2011,02,13,09,54,1.00
2011,02,13,09,55,1.00
2011,02,13,09,56,0.10
2011,02,13,09,57,0.20
2011,02,13,09,58,0.00
2011,02,13,09,59,0.00
2011,02,13,10,00,0.00
2011,02,13,10,01,0.10
2011,02,13,10,02,1.30
2011,02,13,10,03,1.00
2011,02,13,10,04,0.80
2011,02,13,10,05,5.10
2011,02,13,10,06,1.30
2011,02,13,10,07,1.40
2011,02,13,10,08,0.80
2011,02,13,10,09,0.20
2011,02,13,10,10,0.10
2011,02,13,10,11,1.10
2011,02,13,10,12,0.20
2011,02,13,10,13,1.90
2011,02,13,10,14,1.70
2011,02,13,10,15,0.50
2011,02,13,10,16,1.20
2011,02,13,10,17,1.10
2011,02,13,10,18,2.20
2011,02,13,10,19,0.80
2011,02,13,10,20,2.20
2011,02,13,10,21,1.00
2011,02,13,10,22,1.80
2011,02,13,10,23,1.80
2011,02,13,10,24,2.10
2011,02,13,10,25,1.90
2011,02,13,10,26,1.70
2011,02,13,10,27,2.30
2011,02,13,10,28,0.30
2011,02,13,10,29,0.30
2011,02,13,10,30,0.10
2011,02,13,10,31,0.50
2011,02,13,10,32,1.70
2011,02,13,10,33,0.20
2011,02,13,10,34,0.10
2011,02,13,10,35,1.20
2011,02,13,10,36,0.60
2011,02,13,10,37,1.80
2011,02,13,10,38,2.70
2011,02,13,10,39,1.40
2011,02,13,10,40,0.90
2011,02,13,10,41,0.00
2011,02,13,10,42,0.20
2011,02,13,10,43,0.00
2011,02,13,10,44,0.00
2011,02,13,10,45,0.10
2011,02,13,10,46,0.80
2011,02,13,10,47,0.60
2011,02,13,10,48,0.00
2011,02,13,10,49,0.00
2011,02,13,10,50,0.20
2011,02,13,10,51,0.80
2011,02,13,10,52,0.10
2011,02,13,10,53,0.00
2011,02,13,10,54,0.00
2011,02,13,10,55,0.00
2011,02,13,10,56,0.00
2011,02,13,10,57,0.00
2011,02,13,10,58,0.00
2011,02,13,10,59,0.00
2011,02,13,11,00,0.00
2011,02,13,11,01,0.00
2011,02,13,11,02,0.00
2011,02,13,11,03,0.00
2011,02,13,11,04,0.00
2011,02,13,11,05,0.00
2011,02,13,11,06,0.00
2011,02,13,11,07,0.00
2011,02,13,11,08,0.00
2011,02,13,11,09,0.00
2011,02,13,11,10,0.00
2011,02,13,11,11,0.00
2011,02,13,11,12,0.00
2011,02,13,11,13,0.00
2011,02,13,11,14,0.00
2011,02,13,11,15,0.00
2011,02,13,11,16,0.00
2011,02,13,11,17,0.00
2011,02,13,11,18,0.00
2011,02,13,11,19,0.50
2011,02,13,11,20,0.00
2011,02,13,11,21,0.00
2011,02,13,11,22,0.10
2011,02,13,11,23,0.00
2011,02,13,11,24,0.00
2011,02,13,11,25,0.10
2011,02,13,11,26,0.00
2011,02,13,11,27,0.00
2011,02,13,11,28,0.10
2011,02,13,11,29,0.00
2011,02,13,11,30,0.00
2011,02,13,11,31,0.00
2011,02,13,11,32,0.10
2011,02,13,11,33,0.20
2011,02,13,11,34,1.30
2011,02,13,11,35,0.10
2011,02,13,11,36,0.00
2011,02,13,11,37,0.00
2011,02,13,11,38,0.00
2011,02,13,11,39,0.00
2011,02,13,11,40,0.00
2011,02,13,11,41,0.00
2011,02,13,11,42,0.00
2011,02,13,11,43,0.00
2011,02,13,11,44,0.20
2011,02,13,11,45,0.70
2011,02,13,11,46,0.00
2011,02,13,11,47,0.00
2011,02,13,11,48,0.10
2011,02,13,11,49,0.00
2011,02,13,11,50,0.10
2011,02,13,11,51,0.10
2011,02,13,11,52,1.40
2011,02,13,11,53,0.60
2011,02,13,11,54,1.10
2011,02,13,11,55,1.60
2011,02,13,11,56,2.40
2011,02,13,11,57,3.10
2011,02,13,11,58,3.50
2011,02,13,11,59,3.20
2011,02,13,12,00,2.10
2011,02,13,12,01,3.20
2011,02,13,12,02,3.00
2011,02,13,12,03,2.90
2011,02,13,12,04,2.30
2011,02,13,12,05,3.30
2011,02,13,12,06,3.10
2011,02,13,12,07,4.00
2011,02,13,12,08,2.50
2011,02,13,12,09,1.80
2011,02,13,12,10,0.70
2011,02,13,12,11,1.60
2011,02,13,12,12,1.30
2011,02,13,12,13,1.80
2011,02,13,12,14,2.00
2011,02,13,12,15,3.30
2011,02,13,12,16,2.30
2011,02,13,12,17,1.90
2011,02,13,12,18,0.00
2011,02,13,12,19,0.00
2011,02,13,12,20,0.60
2011,02,13,12,21,0.20
2011,02,13,12,22,0.80
2011,02,13,12,23,1.50
2011,02,13,12,24,3.00
2011,02,13,12,25,2.90
2011,02,13,12,26,0.20
2011,02,13,12,27,1.30
2011,02,13,12,28,1.60
2011,02,13,12,29,0.60
2011,02,13,12,30,2.70
2011,02,13,12,31,0.00
2011,02,13,12,32,0.00
2011,02,13,12,33,0.20
2011,02,13,12,34,0.30
2011,02,13,12,35,0.00
2011,02,13,12,36,0.30
2011,02,13,12,37,0.40
2011,02,13,12,38,0.50
2011,02,13,12,39,2.30
2011,02,13,12,40,2.20
2011,02,13,12,41,0.20
2011,02,13,12,42,0.20
2011,02,13,12,43,0.20
2011,02,13,12,44,0.00
2011,02,13,12,45,0.20
2011,02,13,12,46,4.30
2011,02,13,12,47,3.90
2011,02,13,12,48,3.50
2011,02,13,12,49,1.00
2011,02,13,12,50,3.80
2011,02,13,12,51,1.70
2011,02,13,12,52,3.60
2011,02,13,12,53,1.10
2011,02,13,12,54,2.70
2011,02,13,12,55,3.00
2011,02,13,12,56,2.80
2011,02,13,12,57,1.40
2011,02,13,12,58,0.10
2011,02,13,12,59,1.10
2011,02,13,13,00,0.60
2011,02,13,13,01,0.20
2011,02,13,13,02,0.80
2011,02,13,13,03,0.20
2011,02,13,13,04,0.80
2011,02,13,13,05,0.90
2011,02,13,13,06,0.50
2011,02,13,13,07,0.50
2011,02,13,13,08,1.30
2011,02,13,13,09,0.70
2011,02,13,13,10,0.00
2011,02,13,13,11,1.00
2011,02,13,13,12,0.30
2011,02,13,13,13,0.30
2011,02,13,13,14,0.30
2011,02,13,13,15,0.20
2011,02,13,13,16,1.40
2011,02,13,13,17,1.60
2011,02,13,13,18,2.30
2011,02,13,13,19,2.80
2011,02,13,13,20,2.60
2011,02,13,13,21,2.50
2011,02,13,13,22,2.50
2011,02,13,13,23,4.60
2011,02,13,13,24,4.30
2011,02,13,13,25,5.30
2011,02,13,13,26,4.20
2011,02,13,13,27,2.50
2011,02,13,13,28,3.80
2011,02,13,13,29,5.00
2011,02,13,13,30,5.80
2011,02,13,13,31,4.50
2011,02,13,13,32,3.70
2011,02,13,13,33,4.70
2011,02,13,13,34,3.70
2011,02,13,13,35,5.00
2011,02,13,13,36,3.30
2011,02,13,13,37,1.90
2011,02,13,13,38,3.40
2011,02,13,13,39,4.00
2011,02,13,13,40,2.50
2011,02,13,13,41,0.00
2011,02,13,13,42,0.00
2011,02,13,13,43,0.60
2011,02,13,13,44,3.20
2011,02,13,13,45,4.30
2011,02,13,13,46,1.10
2011,02,13,13,47,3.90
2011,02,13,13,48,1.90
2011,02,13,13,49,0.00
2011,02,13,13,50,1.50
2011,02,13,13,51,1.70
2011,02,13,13,52,1.10
2011,02,13,13,53,1.10
2011,02,13,13,54,0.40
2011,02,13,13,55,1.00
2011,02,13,13,56,2.30
2011,02,13,13,57,2.30
2011,02,13,13,58,0.90
2011,02,13,13,59,0.80
2011,02,13,14,00,1.80
2011,02,13,14,01,3.10
2011,02,13,14,02,1.30
2011,02,13,14,03,1.90
2011,02,13,14,04,0.60
2011,02,13,14,05,3.50
2011,02,13,14,06,3.20
2011,02,13,14,07,3.80
2011,02,13,14,08,2.80
2011,02,13,14,09,1.50
2011,02,13,14,10,2.50
2011,02,13,14,11,0.70
2011,02,13,14,12,1.80
2011,02,13,14,13,1.00
2011,02,13,14,14,0.40
2011,02,13,14,15,2.10
2011,02,13,14,16,1.00
2011,02,13,14,17,0.80
2011,02,13,14,18,0.00
2011,02,13,14,19,0.20
2011,02,13,14,20,0.20
2011,02,13,14,21,0.30
2011,02,13,14,22,0.40
2011,02,13,14,23,0.30
2011,02,13,14,24,1.90
2011,02,13,14,25,2.00
2011,02,13,14,26,1.00
2011,02,13,14,27,0.80
2011,02,13,14,28,0.60
2011,02,13,14,29,2.30
2011,02,13,14,30,0.90
2011,02,13,14,31,0.20
2011,02,13,14,32,0.60
2011,02,13,14,33,0.20
2011,02,13,14,34,0.20
2011,02,13,14,35,0.10
2011,02,13,14,36,0.10
2011,02,13,14,37,0.00
2011,02,13,14,38,0.20
2011,02,13,14,39,2.20
2011,02,13,14,40,3.50
2011,02,13,14,41,2.80
2011,02,13,14,42,2.10
2011,02,13,14,43,0.70
2011,02,13,14,44,0.20
2011,02,13,14,45,0.20
2011,02,13,14,46,0.80
2011,02,13,14,47,0.80
2011,02,13,14,48,2.60
2011,02,13,14,49,1.60
2011,02,13,14,50,1.40
2011,02,13,14,51,0.20
2011,02,13,14,52,2.60
2011,02,13,14,53,2.80
2011,02,13,14,54,0.50
2011,02,13,14,55,0.80
2011,02,13,14,56,2.40
2011,02,13,14,57,0.50
2011,02,13,14,58,0.70
2011,02,13,14,59,0.20
2011,02,13,15,00,0.00
2011,02,13,15,01,0.00
2011,02,13,15,02,0.00
2011,02,13,15,03,0.00
2011,02,13,15,04,0.00
2011,02,13,15,05,0.00
2011,02,13,15,06,1.00
2011,02,13,15,07,1.70
2011,02,13,15,08,2.90
2011,02,13,15,09,1.70
2011,02,13,15,10,2.20
2011,02,13,15,11,2.80
2011,02,13,15,12,3.20
2011,02,13,15,13,0.60
2011,02,13,15,14,0.90
2011,02,13,15,15,0.70
2011,02,13,15,16,0.60
2011,02,13,15,17,2.20
2011,02,13,15,18,0.90
2011,02,13,15,19,0.30
2011,02,13,15,20,0.00
2011,02,13,15,21,0.00
2011,02,13,15,22,0.00
2011,02,13,15,23,0.00
2011,02,13,15,24,0.00
2011,02,13,15,25,0.00
2011,02,13,15,26,0.00
2011,02,13,15,27,0.00
2011,02,13,15,28,0.00
2011,02,13,15,29,0.00
2011,02,13,15,30,0.30
2011,02,13,15,31,0.20
2011,02,13,15,32,0.30
2011,02,13,15,33,0.50
2011,02,13,15,34,0.30
2011,02,13,15,35,0.20
2011,02,13,15,36,0.40
2011,02,13,15,37,1.00
2011,02,13,15,38,2.00
2011,02,13,15,39,1.40
2011,02,13,15,40,0.30
2011,02,13,15,41,3.30
2011,02,13,15,42,2.70
2011,02,13,15,43,2.60
2011,02,13,15,44,1.80
2011,02,13,15,45,2.30
2011,02,13,15,46,6.10
2011,02,13,15,47,2.00
2011,02,13,15,48,5.60
2011,02,13,15,49,2.50
2011,02,13,15,50,3.90
2011,02,13,15,51,4.70
2011,02,13,15,52,8.40
2011,02,13,15,53,5.80
2011,02,13,15,54,2.70
2011,02,13,15,55,4.90
2011,02,13,15,56,4.90
2011,02,13,15,57,2.70
2011,02,13,15,58,1.20
2011,02,13,15,59,0.80
2011,02,13,16,00,0.70
2011,02,13,16,01,2.10
2011,02,13,16,02,5.20
2011,02,13,16,03,2.70
2011,02,13,16,04,5.80
2011,02,13,16,05,4.20
2011,02,13,16,06,0.20
2011,02,13,16,07,1.50
2011,02,13,16,08,0.20
2011,02,13,16,09,2.30
2011,02,13,16,10,2.50
2011,02,13,16,11,3.20
2011,02,13,16,12,1.00
2011,02,13,16,13,2.80
2011,02,13,16,14,1.40
2011,02,13,16,15,1.20
2011,02,13,16,16,0.70
2011,02,13,16,17,5.10
2011,02,13,16,18,1.10
2011,02,13,16,19,0.20
2011,02,13,16,20,1.40
2011,02,13,16,21,0.40
2011,02,13,16,22,1.20
2011,02,13,16,23,5.30
2011,02,13,16,24,5.60
2011,02,13,16,25,1.80
2011,02,13,16,26,4.40
2011,02,13,16,27,2.80
2011,02,13,16,28,1.90
2011,02,13,16,29,0.20
2011,02,13,16,30,0.50
2011,02,13,16,31,3.50
2011,02,13,16,32,3.60
2011,02,13,16,33,2.80
2011,02,13,16,34,0.60
2011,02,13,16,35,1.50
2011,02,13,16,36,3.00
2011,02,13,16,37,1.70
2011,02,13,16,38,4.20
2011,02,13,16,39,0.80
2011,02,13,16,40,0.00
2011,02,13,16,41,4.40
2011,02,13,16,42,2.50
2011,02,13,16,43,2.60
2011,02,13,16,44,2.50
2011,02,13,16,45,1.60
2011,02,13,16,46,0.00
2011,02,13,16,47,0.00
2011,02,13,16,48,4.20
2011,02,13,16,49,2.40
2011,02,13,16,50,0.40
2011,02,13,16,51,0.70
2011,02,13,16,52,0.20
2011,02,13,16,53,1.00
2011,02,13,16,54,6.80
2011,02,13,16,55,3.10
2011,02,13,16,56,0.10
2011,02,13,16,57,3.00
2011,02,13,16,58,4.80
2011,02,13,16,59,5.10
2011,02,13,17,00,0.90
2011,02,13,17,01,2.00
2011,02,13,17,02,2.90
2011,02,13,17,03,4.00
2011,02,13,17,04,6.50
2011,02,13,17,05,6.60
2011,02,13,17,06,5.00
2011,02,13,17,07,7.20
2011,02,13,17,08,4.90
2011,02,13,17,09,4.50
2011,02,13,17,10,5.40
2011,02,13,17,11,4.90
2011,02,13,17,12,8.30
2011,02,13,17,13,6.90
2011,02,13,17,14,5.00
2011,02,13,17,15,6.30
2011,02,13,17,16,4.70
2011,02,13,17,17,4.80
2011,02,13,17,18,3.60
2011,02,13,17,19,1.70
2011,02,13,17,20,1.40
2011,02,13,17,21,3.90
2011,02,13,17,22,6.50
2011,02,13,17,23,5.40
2011,02,13,17,24,7.60
2011,02,13,17,25,3.10
2011,02,13,17,26,2.10
2011,02,13,17,27,3.60
2011,02,13,17,28,6.10
2011,02,13,17,29,3.60
2011,02,13,17,30,0.90
2011,02,13,17,31,3.80
2011,02,13,17,32,2.20
2011,02,13,17,33,1.40
2011,02,13,17,34,1.50
2011,02,13,17,35,5.80
2011,02,13,17,36,3.00
2011,02,13,17,37,3.30
2011,02,13,17,38,0.90
2011,02,13,17,39,1.00
2011,02,13,17,40,2.20
2011,02,13,17,41,0.80
2011,02,13,17,42,5.30
2011,02,13,17,43,3.50
2011,02,13,17,44,3.80
2011,02,13,17,45,2.30
2011,02,13,17,46,1.10
2011,02,13,17,47,1.60
2011,02,13,17,48,1.40
2011,02,13,17,49,1.30
2011,02,13,17,50,1.50
2011,02,13,17,51,1.10
2011,02,13,17,52,0.70
2011,02,13,17,53,3.00
2011,02,13,17,54,0.60
2011,02,13,17,55,0.80
2011,02,13,17,56,0.20
2011,02,13,17,57,0.00
2011,02,13,17,58,0.00
2011,02,13,17,59,1.60
2011,02,13,18,00,0.00
2011,02,13,18,01,0.00
2011,02,13,18,02,0.00
2011,02,13,18,03,0.10
2011,02,13,18,04,1.20
2011,02,13,18,05,0.60
2011,02,13,18,06,0.10